Simultaneous Nadir Overpasses (SNOs) Predictions

Prediction of SNOs between GOES-17 and NOAA-19 Satellite Orbit:

Table of predicted SNOs for the next 14.0 days since TLE Epoch: 12/14/2024
Index Date Time (GOES-17) GOES-17 Lat,Lon NOAA-19 Lat,Lon Distance(km) Time Diff (sec)
1 12/16/2024 04:46:14 0.00,-104.67 -0.68,-107.72 347.90 80
2 12/17/2024 04:33:44 -0.01,-104.66 0.01,-104.68 3.30 80
3 12/18/2024 04:18:34 -0.02,-104.66 0.64,-101.63 345.05 80
4 12/20/2024 16:37:23 0.04,-104.71 0.38,-106.12 161.19 80
5 12/21/2024 16:27:33 0.04,-104.72 -0.33,-103.09 185.99 80
6 12/24/2024 04:46:39 -0.04,-104.70 -0.69,-107.64 335.50 80
7 12/25/2024 04:31:28 -0.04,-104.70 -0.03,-104.60 11.47 80
8 12/26/2024 04:18:59 -0.04,-104.70 0.68,-101.57 358.12 80
9 12/27/2024 16:50:16 0.04,-104.74 1.02,-109.08 495.78 80
